sat.trackr.live / text

‹ back to catalog

YAOGAN-31 04C

NORAD 47857 · 2021-020D

PAYLOAD ACTIVE UNKNOWN

§ Identity

Operator
Country
PRC
Launch date
2021-03-13
Launch site
JSC
Launch vehicle
Mass (kg)
RCS (m²)

External: N2YO · Heavens-Above · Gunter

§ Orbital elements

Epoch: 2026-09-10T04:29:14.665920Z

Period
107.03 min
Inclination
63.4060°
Eccentricity
0.0182051
Mean motion
13.45451841 rev/d
Perigee alt
953.1 km
Apogee alt
1,225.0 km
Semi-major
7,467.2 km
B*
-6.3800e-5
RAAN
39.6414°
Arg perigee
0.7390°
Mean anomaly
359.3872°
Rev number
26,989

§ Raw data

YAOGAN-31 04C1 47857U 21020D   26253.18697530 -.00000132  00000+0 -63800-4 0  99912 47857  63.4060  39.6414 0182051   0.7390 359.3872 13.45451841269892

JSON: /api/v1/satellites/47857 · /tle

For live sub-satellite position, see the globe view (requires WebGL).

§ Visibility from observer

Set your observer location to see the next 7 days of passes ≥ 10°. The values pass through the URL so the page stays shareable.

No JS? Fill the form by hand. The geolocation button needs JavaScript.